Simultaneous Nadir Overpasses (SNOs) Predictions

Prediction of SNOs between NOAA-19 and TERRA Satellite Orbit:

Table of predicted SNOs for the next 14.0 days since TLE Epoch: 6/29/2020
Index Date (NOAA-19) Time (NOAA-19) Lat,Lon (NOAA-19) SZA (NOAA-19 ) Date (TERRA) Time (TERRA) Lat,Lon (TERRA) SZA (TERRA ) Distance(km) Time Diff (sec)
1 06/30/2020 18:50:03 79.56, -74.22 57.68 06/30/2020 18:50:58 79.53, -74.16 57.68 3.00 55
2 06/30/2020 19:41:05 -79.51, 93.54 122.32 06/30/2020 19:40:25 -79.54, 93.49 122.32 3.47 40
3 07/03/2020 00:23:32 -79.78, 20.16 122.17 07/03/2020 00:24:38 -79.69, 23.57 121.92 68.15 66
4 07/03/2020 01:14:19 79.52,-169.87 57.85 07/03/2020 01:14:08 79.55,-169.86 57.86 2.40 11
5 07/05/2020 06:47:41 -79.55, -73.33 121.96 07/05/2020 06:47:52 -79.56, -73.21 121.94 2.78 11
6 07/05/2020 07:38:29 79.31, 96.16 58.06 07/05/2020 07:37:22 79.40, 93.36 57.84 58.35 67
7 07/07/2020 12:20:54 79.56, 23.29 58.28 07/07/2020 12:21:35 79.56, 23.36 58.29 1.39 41
8 07/07/2020 13:11:58 -79.53,-169.19 121.72 07/07/2020 13:11:03 -79.53,-169.21 121.75 0.64 55
9 07/09/2020 17:54:15 -79.57, 119.98 121.46 07/09/2020 17:55:18 -79.57, 120.00 121.44 0.56 63
10 07/09/2020 18:45:09 79.53, -72.38 58.55 07/09/2020 18:44:44 79.56, -72.41 58.56 3.42 25
